Satellite-Ground Cal/Val Site Overpasses Predictions

Prediction of Satellite NPP Overpassing Cal/Val Site: Antarctic Dome C

Ground Cal/Val Site Location: Latitude: -75.10, Longitude: 123.35; Satellite-Ground Site NADIR distance within 100 km.

Table of predicted overpasses for the next 14.0 days since TLE Epoch: 8/29/2014
Interval Starting Time Ending Time Minimum Distance Time Minimum Distance (km)
1 08/30/2014 07:39:36 08/30/2014 07:40:05 08/30/2014 07:39:51 4.85
2 09/02/2014 15:03:09 09/02/2014 15:03:37 09/02/2014 15:03:23 26.87
3 09/03/2014 14:44:28 09/03/2014 14:44:45 09/03/2014 14:44:36 80.10
4 09/04/2014 07:46:02 09/04/2014 07:46:29 09/04/2014 07:46:16 31.63
5 09/05/2014 07:27:19 09/05/2014 07:27:37 09/05/2014 07:27:28 78.37
6 09/07/2014 15:09:38 09/07/2014 15:10:00 09/07/2014 15:09:49 64.21
7 09/08/2014 14:50:48 09/08/2014 14:51:14 09/08/2014 14:51:01 44.95
8 09/09/2014 07:52:30 09/09/2014 07:52:52 09/09/2014 07:52:41 66.99


NCC Satellite Cal/Val Overpasses Prediction Service
